Location: Chavannes
(47.1090°N, 0.2226°W)
Time: 14:11:22
(UTC+00:00)

Cosmos 1607 - Pass Details

Date: 16 October 2021
Orbit: 918 x 984 km, 65.0° (Epoch: 06 December)

Event Time Altitude Azimuth Distance (km) Brightness Sun altitude
Rises 17:37:40 0° 323° (NW) 3,670 7.4 -5.2°
Reaches altitude 10° 17:40:21 10° 329° (NNW) 2,711 6.7 -5.7°
Maximum altitude 17:46:30 51° 44° (NE) 1,189 4.2 -6.7°
Drops below altitude 10° 17:52:31 10° 120° (ESE) 2,652 5.8 -7.7°
Enters shadow 17:54:59 - 126° (SE) 3,536 6.5 -8.2°
